Simultaneous Nadir Overpasses (SNOs) Predictions

Prediction of SNOs between GOES-14 and AQUA Satellite Orbit:

Table of predicted SNOs for the next 14.0 days since TLE Epoch: 12/6/2019
Index Date Time (GOES-14) GOES-14 Lat,Lon AQUA Lat,Lon Distance(km) Time Diff (sec)
1 12/07/2019 20:20:20 -0.03,-104.05 0.66,-101.00 348.12 80
2 12/08/2019 08:41:37 0.01,-104.28 0.39,-106.17 214.06 80
3 12/10/2019 08:26:46 0.02,-104.28 -0.22,-103.21 121.85 80
4 12/10/2019 20:48:09 -0.00,-104.04 -0.95,-108.38 494.85 80
5 12/12/2019 08:14:35 0.02,-104.27 -0.83,-100.25 457.45 80
6 12/12/2019 20:35:58 -0.01,-104.03 -0.34,-105.43 159.00 80
7 12/14/2019 20:26:28 -0.01,-104.03 0.34,-102.48 176.46 80
8 12/15/2019 08:47:44 -0.00,-104.28 0.70,-107.65 383.35 80
9 12/17/2019 08:35:33 -0.00,-104.27 0.08,-104.69 48.22 80
10 12/19/2019 08:20:43 0.00,-104.26 -0.54,-101.74 287.09 80
11 12/19/2019 20:42:05 0.01,-104.00 -0.62,-106.91 331.67 80




NCC Satellite Simultaneous Nadir Overpasses (SNOs) Prediction Service
